Home > Time Zones > World Clock > Weather > Spain > Ceuta > Past weeks

Flag for Spain Weather past 2 weeks in Ceuta, Ceuta, Spain

Now
66 °F

Passing clouds.


Feels Like: 66 °F
Forecast: 60 / 70 °F
Wind: 14 mph from Southwest

Location: Gibraltar Airport

Current Time: Mar 2, 2015 at 5:08:01 PM

Latest Report: Mar 2, 2015 at 3:50 PM


Visibility: N/A

Pressure: 30.24 "Hg

Humidity: 68%

Dew point: 55 °F

Location of CeutaLocation

Historic Weather in Ceuta — Graph

°F

Ceuta temperature yesterday

Maximum temperature yesterday: 64 °F (at 12:50 PM)
Minimum temperature yesterday: 57 °F (at 12:50 AM)
Average temperature yesterday: 60 °F

Past Weeks' High & Low Weather Summary

 TemperatureHumidityPressure
High68 °F (Mar 2, 2:50 PM)94% (Feb 21, 12:50 AM)30.48 "Hg (Feb 21, 12:50 AM)
Low50 °F (Feb 20, 6:50 AM)34% (Feb 25, 12:50 PM)29.86 "Hg (Feb 21, 3:50 PM)
Average57 °F72%30.21 "Hg
* Reported Feb 15 3:50 PM — Mar 2 3:50 PM, Ceuta, Weather by CustomWeather, © 2015

Note: Actual official high and low records may vary slightly from our data, if they occured in-between our weather recording intervals... More about our weather records

Advertising

Ceuta weather history for previous 24 hours

 ConditionsComfort  
Time TempWeatherWind HumidityBarometerVisibility
3:50 PM
Mon, Mar 2
66 °FPassing clouds.14 mph68%30.24 "HgN/A
2:50 PM68 °FPassing clouds.10 mph60%30.24 "HgN/A
1:50 PM66 °FPassing clouds.9 mph64%30.27 "HgN/A
12:50 PM66 °FPassing clouds.9 mph64%30.30 "HgN/A
11:50 AM64 °FPassing clouds.7 mph68%30.30 "HgN/A
10:50 AM63 °FPassing clouds.7 mph68%30.30 "HgN/A
9:50 AM59 °FPassing clouds.7 mph77%30.30 "HgN/A
8:50 AM57 °FPassing clouds.9 mph82%30.27 "HgN/A
7:50 AM57 °FPassing clouds.9 mph77%30.27 "HgN/A
6:50 AM57 °FPassing clouds.10 mph77%30.27 "HgN/A
5:50 AM57 °FClear.14 mph72%30.24 "HgN/A
4:50 AM59 °FClear.12 mph72%30.24 "HgN/A
3:50 AM59 °FClear.12 mph72%30.27 "HgN/A
2:50 AM59 °FClear.13 mph72%30.27 "HgN/A
1:50 AM59 °FClear.15 mph77%30.27 "HgN/A
12:50 AM59 °FClear.15 mph77%30.30 "HgN/A
11:50 PM
Sun, Mar 1
59 °FClear.15 mph77%30.30 "HgN/A
10:50 PM59 °FPassing clouds.12 mph77%30.30 "HgN/A
9:50 PM59 °FPassing clouds.12 mph77%30.30 "HgN/A
9:30 PM61 °FPassing clouds.14 mph72%30.30 "HgN/A
8:50 PM61 °FClear.14 mph77%30.30 "HgN/A
7:50 PM63 °FClear.12 mph68%30.27 "Hg10 mi
6:50 PM64 °FScattered clouds.12 mph64%30.27 "HgN/A
5:50 PM63 °FScattered clouds.12 mph68%30.27 "HgN/A
Weather by CustomWeather, © 2015

See weather overviewHow to use our weather pages